Tracking 19246 objects as of 21-Sep-2018
HD Live streaming from Space Station
objects crossing your sky now

IRIDIUM 145

Track IRIDIUM 145 now!
10-day predictions
IRIDIUM 145 is classified as:


NORAD ID: 43253
Int'l Code: 2018-030G
Perigee: 782.1 km
Apogee: 787.5 km
Inclination: 86.4 °
Period: 100.4 minutes
Semi major axis: 7155 km
RCS: Unknown
Launch date: March 30, 2018
Source: United States (US)
Launch site: AIR FORCE WESTERN TEST RANGE (AFWTR)
aabbcc
Your satellite tracking list
Your tracking list is empty




NASA's NSSDC Master Catalog

Two Line Element Set (TLE):
1 43253U 18030E   18263.80009830 +.00000064 +00000-0 +15798-4 0  9991
2 43253 086.3997 031.5557 0003828 104.4773 255.6847 14.34218760025015
Source of the keplerian elements: AFSPC